User: anonymous   Login
Location: Unspecified
(0.0000°N, 0.0000°E)
Time: 10:55:20
(UTC+00:00)
Language:

TBA - TO BE ASSIGNED - Orbit

View from above orbital plane
View from above orbital plane
View from above satellite
View from above satellite

Ground track
Ground track

The orbit is defined by the following mean orbital elements,

1 68295U          26145.31278012 +.00000000 +00000-0 +11165-2 0 00001
2 68295  97.2844 271.5109 0001570   3.9673 356.1604 15.75205032    07
Epoch (UTC): 25 May 2026 07:30:24
Eccentricity: 0.0001570
inclination: 97.2844°
perigee height: 343 km
apogee height: 345 km
right ascension of ascending node: 271.5109°
argument of perigee: 3.9673°
revolutions per day: 15.75205032
mean anomaly at epoch: 356.1604°

The dashed part of the orbit path shows where the satellite is in the earth's shadow,  

DLR